Weather History for Hot Springs, AR

Change the Weather History Date:

Saturday, September 1, 2012

  Actual Average Record
Temperature  
Mean Temperature 85 °F -  
Max Temperature 95 °F 91 °F 107 °F (1985)
Min Temperature 75 °F 67 °F 53 °F (1967)
Cooling Degree Days 20    
Growing Degree Days 35 (Base 50)    
Moisture  
Dew Point 72 °F    
Average Humidity 79    
Maximum Humidity 94    
Minimum Humidity 46    
Precipitation  
Precipitation 0.97 in - - ()
Sea Level Pressure  
Sea Level Pressure 29.95 in    
Wind  
Wind Speed 8 mph (SW)    
Max Wind Speed 16 mph    
Max Gust Speed 24 mph    
Visibility 7 miles    
Events Fog , Rain , Thunderstorm    
Averages and records for this station are not official NWS values.
T = Trace of Precipitation, MM = Missing Value Source: NWS Daily Summary

Daily Weather History Graph

Daily Weather History Graph

Search for Another Location

Airport:

Trip Planner

Search our weather history database for the weather conditions in past years. The results will help you decide how hot, cold, wet, or windy it might be!

Date:

Astronomy

Sep. 01, 2012 Rise Set
Actual Time 6:45 AM CDT 7:37 PM CDT
Civil Twilight 6:20 AM CDT 8:03 PM CDT
Nautical Twilight 5:49 AM CDT 8:33 PM CDT
Astronomical Twilight 5:18 AM CDT 9:04 PM CDT
Moon 8:01 PM CDT (9/1) 7:48 AM CDT (9/1)
Length of Visible Light 13h 43m
Length of Day
12h 51m
Full, 99% of the Moon is Illuminated
Sep 1
Full
Sep 8
Last Quarter
Sep 15
New
Sep 22
First Quarter
Sep 29
Full

Hourly Weather History & Observations

Time (CDT) Temp. Heat Index Dew Point Humidity Pressure Visibility Wind Dir Wind Speed Gust Speed Precip Events Conditions
12:53 AM 75.9 °F - 72.0 °F 87% 29.95 in 9.0 mi WSW 5.8 mph - 0.02 in Rain Light Rain
1:53 AM 77.0 °F - 72.0 °F 84% 29.96 in 10.0 mi WSW 6.9 mph - 0.00 in Rain Light Rain
2:53 AM 77.0 °F - 72.0 °F 84% 29.96 in 10.0 mi SW 8.1 mph - 0.00 in   Mostly Cloudy
3:53 AM 75.9 °F - 71.1 °F 85% 29.96 in 10.0 mi SSW 8.1 mph - N/A   Partly Cloudy
4:53 AM 75.9 °F - 71.1 °F 85% 29.97 in 10.0 mi WSW 5.8 mph - N/A   Mostly Cloudy
5:53 AM 75.9 °F - 71.1 °F 85% 29.97 in 10.0 mi SW 5.8 mph - N/A   Partly Cloudy
6:53 AM 75.9 °F - 71.1 °F 85% 29.99 in 10.0 mi SW 8.1 mph - N/A   Mostly Cloudy
7:53 AM 77.0 °F - 72.0 °F 84% 30.01 in 10.0 mi SW 8.1 mph 18.4 mph N/A   Mostly Cloudy
8:53 AM 79.0 °F - 73.0 °F 82% 30.01 in 10.0 mi SW 10.4 mph - N/A   Mostly Cloudy
9:02 AM 78.8 °F - 73.4 °F 83% 30.03 in 10.0 mi WSW 10.4 mph - N/A   Mostly Cloudy
9:53 AM 81.0 °F 85.8 °F 73.0 °F 77% 30.01 in 10.0 mi West 11.5 mph 19.6 mph N/A   Overcast
10:53 AM 84.9 °F 92.1 °F 73.9 °F 69% 30.01 in 10.0 mi SW 11.5 mph 18.4 mph N/A   Mostly Cloudy
11:01 AM 84.2 °F 90.9 °F 73.4 °F 70% 30.03 in 10.0 mi WSW 11.5 mph 19.6 mph N/A   Scattered Clouds
11:53 AM 88.0 °F 93.8 °F 71.1 °F 57% 29.99 in 10.0 mi WSW 12.7 mph 24.2 mph N/A   Partly Cloudy
12:53 PM 91.0 °F 97.6 °F 71.1 °F 52% 29.97 in 10.0 mi WSW 13.8 mph 21.9 mph N/A   Clear
1:53 PM 91.9 °F 99.5 °F 72.0 °F 52% 29.95 in 10.0 mi SW 11.5 mph - N/A   Clear
2:53 PM 93.9 °F 102.1 °F 72.0 °F 49% 29.92 in 10.0 mi WSW 16.1 mph 19.6 mph N/A   Clear
3:53 PM 95.0 °F 102.5 °F 71.1 °F 46% 29.89 in 10.0 mi SW 8.1 mph 18.4 mph N/A   Partly Cloudy
4:53 PM 93.0 °F 100.1 °F 71.1 °F 49% 29.87 in 10.0 mi SSW 10.4 mph - N/A   Partly Cloudy
5:19 PM 93.2 °F 100.5 °F 71.6 °F 49% 29.90 in 10.0 mi WSW 16.1 mph 21.9 mph N/A Thunderstorm Partly Cloudy
5:42 PM 78.8 °F - 69.8 °F 74% 29.90 in 10.0 mi NNW 11.5 mph 24.2 mph N/A Thunderstorm Mostly Cloudy
5:53 PM 79.0 °F - 69.1 °F 72% 29.86 in 10.0 mi Variable 4.6 mph 18.4 mph 0.00 in Rain , Thunderstorm Light Rain
6:23 PM 77.0 °F - 71.6 °F 83% 29.94 in 4.0 mi WNW 10.4 mph 20.7 mph 0.02 in Rain , Thunderstorm Rain
6:26 PM 77.0 °F - 71.6 °F 83% 29.95 in 1.8 mi NW 11.5 mph 21.9 mph 0.09 in Rain , Thunderstorm Heavy Rain
6:33 PM 75.2 °F - 71.6 °F 89% 29.92 in 0.5 mi NNW 12.7 mph 21.9 mph 0.34 in Fog , Rain , Thunderstorm Heavy Thunderstorms and Rain
6:44 PM 75.2 °F - 71.6 °F 89% 29.90 in 1.0 mi NW 9.2 mph 19.6 mph 0.45 in Rain , Thunderstorm Heavy Thunderstorms and Rain
6:50 PM 75.2 °F - 71.6 °F 89% 29.89 in 3.0 mi Variable 3.5 mph - 0.46 in Rain , Thunderstorm Thunderstorms and Rain
6:53 PM 75.9 °F - 72.0 °F 87% 29.87 in 4.0 mi Calm Calm - 0.46 in Rain , Thunderstorm Light Thunderstorms and Rain
7:29 PM 75.2 °F - 73.4 °F 94% 29.93 in 0.8 mi Variable 4.6 mph - 0.11 in Rain , Thunderstorm Heavy Rain
7:36 PM 75.2 °F - 73.4 °F 94% 29.92 in 2.0 mi ENE 6.9 mph - 0.12 in Rain , Thunderstorm Light Thunderstorms and Rain
7:46 PM 75.2 °F - 73.4 °F 94% 29.93 in 0.8 mi NNE 10.4 mph - 0.29 in Rain , Thunderstorm Heavy Thunderstorms and Rain
7:53 PM 78.1 °F - 73.0 °F 84% 29.91 in 1.2 mi ENE 10.4 mph - 0.33 in Rain , Thunderstorm Light Thunderstorms and Rain
7:56 PM 78.8 °F - 73.4 °F 83% 29.93 in 3.0 mi NE 11.5 mph - 0.02 in Rain , Thunderstorm Heavy Thunderstorms and Rain
8:53 PM 78.1 °F - 73.9 °F 87% 29.92 in 10.0 mi SE 4.6 mph - 0.02 in Thunderstorm Overcast
9:13 PM 77.0 °F - 75.2 °F 94% 29.95 in 9.0 mi South 5.8 mph - N/A   Mostly Cloudy
9:53 PM 77.0 °F - 75.0 °F 94% 29.95 in 10.0 mi East 5.8 mph - N/A   Partly Cloudy
10:53 PM 75.9 °F - 73.9 °F 94% 29.95 in 9.0 mi ENE 5.8 mph - N/A   Clear
11:44 PM 75.2 °F - 73.4 °F 94% 29.96 in 1.8 mi SSE 11.5 mph - N/A Rain Heavy Rain
11:46 PM 75.2 °F - 73.4 °F 94% 29.96 in 2.0 mi SSE 9.2 mph - 0.14 in Rain , Thunderstorm Heavy Thunderstorms and Rain
11:53 PM 77.0 °F - 73.9 °F 90% 29.95 in 5.0 mi Calm Calm - 0.14 in Rain , Thunderstorm Light Thunderstorms and Rain